Weather in Shibin el Kom

Egypt     30°33′25″N   31°00′32″E
temp.,
°C
wind,
m/s
gust,
m/s
humid.,
%
clouds,
%
prec.,
mm/h
press.,
hPa
HPBL,
m
7 may, fri
fri723:00+22nne33465 0.0 101564
02:00+21nne22510 0.0 101417
05:00+20nne114910 0.0 101411
08:00+28n22285 0.0 1014426
11:00+36nw341612 0.0 10131368
14:00+40nw68123 0.0 10112674
17:00+35n88185 0.0 10121076
20:00+25nne48320 0.0 1014158
8 may, sat
sat823:00+21ene344183 0.0 101463
02:00+20e34530 0.0 101360
05:00+20e36535 0.0 1012108
08:00+30ese57190 0.0 1013448
11:00+39ese4473 0.0 10111126
14:00+43e2355 0.0 10092978
17:00+42ne0254 0.0 10084325
20:00+32e471035 0.0 100982
9 may, sun
sun923:00+25ene4103298 0.0 1010161
02:00+26nnw2328100 0.0 101051
05:00+31s4815100 0.0 100898
08:00+39ssw688100 0.0 1008487
11:00+43wsw666100 0.0 10082596
14:00+41nw7614100 0.0 10071609
17:00+36w5719100 0.0 1008580
20:00+29nne2436100 0.0 101095
10 may, mon
mon1023:00+25nw3657100 0.0 1009109
02:00+23nw4767100 0.0 1009236
05:00+20nw488599 0.0 1010289
08:00+26nnw44530 0.0 1010651
11:00+34nw44262 0.0 10091095
14:00+39wnw551633 0.0 10062156
17:00+32nw98300 0.0 1007915
20:00+22nnw610665 0.0 1010429
11 may, tue
tue1123:00+19nw37850 0.0 1010316
02:00+17wnw37930 0.0 1009264
05:00+17wnw389723 0.0 1009264
08:00+23nnw56580 0.0 1010791
11:00+31nnw45290 0.0 10091669
14:00+34nw66200 0.0 10072489
17:00+30nnw87300 0.0 10071614
20:00+22nnw59620 0.0 1010383